| time (UTC) | temp F | wind direction | speed MPH | gust MPH | rain 1hr in | rain 24hr in | rain mn in | humidity % | barometer mb |
| 20260505102011 | 51 | 45 | 0.0 | 0.0 | 0.00 | 0.00 | 0.00 | 80 | 1013.7 |
| 20260505101521 | 51 | 197 | 0.0 | 0.0 | 0.00 | 0.00 | 0.00 | 80 | 1013.7 |
| 20260505101009 | 52 | 197 | 0.0 | 0.0 | 0.00 | 0.00 | 0.00 | 79 | 1013.6 |
| 20260505100507 | 52 | 197 | 0.0 | 0.0 | 0.00 | 0.00 | 0.00 | 79 | 1013.6 |
| 20260505100005 | 52 | 197 | 0.0 | 0.0 | 0.00 | 0.00 | 0.00 | 78 | 1013.7 |
| 20260505095507 | 53 | 197 | 0.0 | 0.0 | 0.00 | 0.00 | 0.00 | 78 | 1013.7 |
| 20260505095007 | 53 | 197 | 0.0 | 0.0 | 0.00 | 0.00 | 0.00 | 77 | 1013.8 |
| 20260505094510 | 53 | 197 | 0.0 | 0.0 | 0.00 | 0.00 | 0.00 | 76 | 1013.8 |
| 20260505094004 | 53 | 197 | 0.0 | 0.0 | 0.00 | 0.00 | 0.00 | 76 | 1013.8 |
| 20260505093505 | 54 | 197 | 0.0 | 0.0 | 0.00 | 0.00 | 0.00 | 76 | 1013.8 |
| 20260505093014 | 54 | 196 | 0.0 | 0.0 | 0.00 | 0.00 | 0.00 | 76 | 1013.8 |
| 20260505092508 | 54 | 197 | 0.0 | 0.0 | 0.00 | 0.00 | 0.00 | 76 | 1013.8 |
| 20260505092009 | 55 | 197 | 0.0 | 1.0 | 0.00 | 0.00 | 0.00 | 76 | 1013.8 |
| 20260505091518 | 55 | 197 | 0.0 | 1.0 | 0.00 | 0.00 | 0.00 | 76 | 1013.8 |
| 20260505091007 | 55 | 197 | 0.0 | 0.0 | 0.00 | 0.00 | 0.00 | 76 | 1013.7 |
| 20260505090507 | 55 | 197 | 0.0 | 0.0 | 0.00 | 0.00 | 0.00 | 75 | 1013.7 |
| 20260505090022 | 55 | 197 | 0.0 | 0.0 | 0.00 | 0.00 | 0.00 | 75 | 1013.6 |
| 20260505085507 | 56 | 197 | 0.0 | 1.0 | 0.00 | 0.00 | 0.00 | 75 | 1013.5 |
| 20260505085010 | 56 | 196 | 0.0 | 1.0 | 0.00 | 0.00 | 0.00 | 74 | 1013.4 |
| 20260505084527 | 56 | 196 | 0.0 | 1.0 | 0.00 | 0.00 | 0.00 | 74 | 1013.4 |
| 20260505084004 | 56 | 196 | 0.0 | 1.0 | 0.00 | 0.00 | 0.00 | 73 | 1013.4 |
| 20260505083504 | 56 | 196 | 0.0 | 1.0 | 0.00 | 0.00 | 0.00 | 73 | 1013.4 |
| 20260505083011 | 57 | 196 | 0.0 | 1.0 | 0.00 | 0.00 | 0.00 | 73 | 1013.4 |
| 20260505082504 | 57 | 196 | 0.0 | 0.0 | 0.00 | 0.00 | 0.00 | 72 | 1013.3 |
| 20260505082010 | 57 | 196 | 0.0 | 1.0 | 0.00 | 0.00 | 0.00 | 72 | 1013.3 |
| 20260505081521 | 57 | 197 | 0.0 | 1.0 | 0.00 | 0.00 | 0.00 | 71 | 1013.2 |
| 20260505081009 | 58 | 197 | 0.0 | 0.0 | 0.00 | 0.00 | 0.00 | 70 | 1013.2 |
| 20260505080510 | 58 | 197 | 0.0 | 0.0 | 0.00 | 0.00 | 0.00 | 70 | 1013.2 |
| 20260505080022 | 58 | 196 | 0.0 | 1.0 | 0.00 | 0.00 | 0.00 | 70 | 1013.2 |
| 20260505075510 | 58 | 196 | 0.0 | 2.0 | 0.00 | 0.00 | 0.00 | 70 | 1013.1 |
| 20260505075007 | 59 | 196 | 0.0 | 2.0 | 0.00 | 0.00 | 0.00 | 70 | 1013.1 |
| 20260505074525 | 59 | 263 | 0.0 | 2.0 | 0.00 | 0.00 | 0.00 | 68 | 1013.1 |
| 20260505074009 | 59 | 237 | 0.0 | 2.0 | 0.00 | 0.00 | 0.00 | 68 | 1013.1 |
| 20260505073514 | 59 | 233 | 0.0 | 3.0 | 0.00 | 0.00 | 0.00 | 68 | 1013.2 |
| 20260505073026 | 59 | 114 | 0.0 | 4.0 | 0.00 | 0.00 | 0.00 | 68 | 1013.1 |
| 20260505072505 | 59 | 219 | 1.0 | 4.0 | 0.00 | 0.00 | 0.00 | 67 | 1013.2 |
| 20260505072008 | 58 | 222 | 1.0 | 3.0 | 0.00 | 0.00 | 0.00 | 68 | 1013.2 |
| 20260505071514 | 58 | 298 | 0.0 | 5.0 | 0.00 | 0.00 | 0.00 | 68 | 1013.3 |
| 20260505071005 | 58 | 279 | 0.0 | 5.0 | 0.00 | 0.00 | 0.00 | 69 | 1013.3 |
| 20260505070508 | 58 | 241 | 1.0 | 3.0 | 0.00 | 0.00 | 0.00 | 69 | 1013.3 |
| 20260505070019 | 59 | 258 | 0.0 | 1.0 | 0.00 | 0.00 | 0.00 | 68 | 1013.2 |
| 20260505065503 | 59 | 308 | 0.0 | 2.0 | 0.00 | 0.00 | 0.00 | 68 | 1013.2 |
| 20260505065003 | 59 | 308 | 0.0 | 2.0 | 0.00 | 0.00 | 0.00 | 68 | 1013.3 |
| 20260505064503 | 60 | 273 | 0.0 | 3.0 | 0.00 | 0.00 | 0.00 | 68 | 1013.3 |
| 20260505064005 | 60 | 230 | 0.0 | 3.0 | 0.00 | 0.00 | 0.00 | 67 | 1013.3 |
| 20260505063503 | 60 | 234 | 0.0 | 3.0 | 0.00 | 0.00 | 0.00 | 67 | 1013.3 |
| 20260505063008 | 60 | 24 | 0.0 | 4.0 | 0.00 | 0.00 | 0.00 | 68 | 1013.3 |
| 20260505062503 | 60 | 197 | 1.0 | 5.0 | 0.00 | 0.00 | 0.00 | 68 | 1013.3 |
| 20260505062003 | 60 | 230 | 1.0 | 5.0 | 0.00 | 0.00 | 0.00 | 68 | 1013.4 |
| 20260505061511 | 59 | 231 | 0.0 | 5.0 | 0.00 | 0.00 | 0.00 | 69 | 1013.3 |
| 20260505061004 | 59 | 201 | 1.0 | 5.0 | 0.00 | 0.00 | 0.00 | 69 | 1013.3 |
| 20260505060511 | 59 | 273 | 0.0 | 3.0 | 0.00 | 0.00 | 0.00 | 70 | 1013.3 |
| 20260505060016 | 59 | 260 | 0.0 | 4.0 | 0.00 | 0.00 | 0.00 | 70 | 1013.2 |
| 20260505055512 | 59 | 196 | 0.0 | 5.0 | 0.00 | 0.00 | 0.00 | 71 | 1013.2 |
| 20260505055003 | 59 | 185 | 1.0 | 6.0 | 0.00 | 0.00 | 0.00 | 72 | 1013.3 |
| 20260505054515 | 58 | 251 | 2.0 | 6.0 | 0.00 | 0.00 | 0.00 | 73 | 1013.3 |
| 20260505054002 | 57 | 186 | 1.0 | 4.0 | 0.00 | 0.00 | 0.00 | 74 | 1013.3 |
| 20260505053504 | 57 | 221 | 0.0 | 3.0 | 0.00 | 0.00 | 0.00 | 75 | 1013.3 |
| 20260505053004 | 57 | 249 | 0.0 | 3.0 | 0.00 | 0.00 | 0.00 | 76 | 1013.3 |
| 20260505052503 | 56 | 226 | 0.0 | 3.0 | 0.00 | 0.00 | 0.00 | 76 | 1013.3 |
| 20260505052003 | 56 | 227 | 0.0 | 3.0 | 0.00 | 0.00 | 0.00 | 77 | 1013.3 |
| 20260505051512 | 56 | 241 | 0.0 | 1.0 | 0.00 | 0.00 | 0.00 | 77 | 1013.1 |
| 20260505051004 | 56 | 241 | 0.0 | 3.0 | 0.00 | 0.00 | 0.00 | 77 | 1013.0 |
| 20260505050508 | 56 | 241 | 0.0 | 3.0 | 0.00 | 0.00 | 0.00 | 78 | 1013.0 |
| 20260505041507 | 56 | 214 | 0.0 | 0.0 | 0.00 | 0.00 | 0.00 | 76 | 1013.0 |
| 20260505041005 | 56 | 214 | 0.0 | 0.0 | 0.00 | 0.00 | 0.00 | 76 | 1013.0 |
| 20260505040507 | 56 | 214 | 0.0 | 0.0 | 0.00 | 0.00 | 0.00 | 76 | 1013.0 |
| 20260505040014 | 56 | 214 | 0.0 | 0.0 | 0.00 | 0.00 | 0.00 | 76 | 1013.0 |
| 20260505035504 | 57 | 214 | 0.0 | 0.0 | 0.00 | 0.00 | 0.00 | 76 | 1013.0 |
| 20260505035004 | 57 | 214 | 0.0 | 0.0 | 0.00 | 0.00 | 0.00 | 75 | 1013.1 |
| 20260505034526 | 57 | 214 | 0.0 | 0.0 | 0.00 | 0.00 | 0.00 | 75 | 1013.0 |
| 20260505034008 | 57 | 214 | 0.0 | 0.0 | 0.00 | 0.00 | 0.00 | 74 | 1013.1 |
| 20260505033506 | 58 | 214 | 0.0 | 0.0 | 0.00 | 0.00 | 0.00 | 73 | 1013.1 |
| 20260505033022 | 58 | 214 | 0.0 | 0.0 | 0.00 | 0.00 | 0.00 | 72 | 1013.0 |
| 20260505032507 | 59 | 214 | 0.0 | 0.0 | 0.00 | 0.00 | 0.00 | 72 | 1013.1 |
| 20260505032008 | 59 | 214 | 0.0 | 0.0 | 0.00 | 0.00 | 0.00 | 71 | 1013.2 |
| 20260505031506 | 59 | 214 | 0.0 | 0.0 | 0.00 | 0.00 | 0.00 | 70 | 1013.1 |
| 20260505031004 | 60 | 214 | 0.0 | 0.0 | 0.00 | 0.00 | 0.00 | 70 | 1013.1 |
| 20260505030504 | 60 | 214 | 0.0 | 0.0 | 0.00 | 0.00 | 0.00 | 69 | 1013.1 |
| 20260505030032 | 61 | 214 | 0.0 | 0.0 | 0.00 | 0.00 | 0.00 | 68 | 1013.1 |
| 20260505025508 | 61 | 214 | 0.0 | 0.0 | 0.00 | 0.00 | 0.00 | 67 | 1013.1 |
| 20260505025008 | 62 | 214 | 0.0 | 0.0 | 0.00 | 0.00 | 0.00 | 67 | 1013.2 |
| 20260505024517 | 62 | 214 | 0.0 | 1.0 | 0.00 | 0.00 | 0.00 | 66 | 1013.2 |
| 20260505024009 | 62 | 214 | 0.0 | 1.0 | 0.00 | 0.00 | 0.00 | 64 | 1013.3 |
| 20260505023507 | 63 | 214 | 0.0 | 1.0 | 0.00 | 0.00 | 0.00 | 64 | 1013.3 |
| 20260505023019 | 63 | 214 | 0.0 | 3.0 | 0.00 | 0.00 | 0.00 | 63 | 1013.2 |
| 20260505022506 | 63 | 214 | 0.0 | 4.0 | 0.00 | 0.00 | 0.00 | 63 | 1013.1 |
| 20260505022011 | 63 | 241 | 2.0 | 4.0 | 0.00 | 0.00 | 0.00 | 63 | 1013.2 |
| 20260505021523 | 63 | 225 | 1.0 | 4.0 | 0.00 | 0.00 | 0.00 | 64 | 1013.1 |
| 20260505021008 | 63 | 258 | 0.0 | 2.0 | 0.00 | 0.00 | 0.00 | 64 | 1013.1 |
| 20260505020507 | 63 | 258 | 0.0 | 2.0 | 0.00 | 0.00 | 0.00 | 64 | 1013.1 |
| 20260505020006 | 64 | 223 | 0.0 | 2.0 | 0.00 | 0.00 | 0.00 | 63 | 1013.1 |
| 20260505015504 | 64 | 232 | 0.0 | 1.0 | 0.00 | 0.00 | 0.00 | 63 | 1013.0 |
| 20260505015004 | 65 | 232 | 0.0 | 2.0 | 0.00 | 0.00 | 0.00 | 61 | 1012.9 |
| 20260505014518 | 65 | 232 | 0.0 | 2.0 | 0.00 | 0.00 | 0.00 | 61 | 1013.0 |
| 20260505014008 | 65 | 232 | 0.0 | 3.0 | 0.00 | 0.00 | 0.00 | 61 | 1013.0 |
| 20260505013507 | 66 | 232 | 0.0 | 4.0 | 0.00 | 0.00 | 0.00 | 60 | 1012.9 |
| 20260505013020 | 66 | 213 | 0.0 | 4.0 | 0.00 | 0.00 | 0.00 | 60 | 1012.9 |
| 20260505012507 | 66 | 264 | 1.0 | 3.0 | 0.00 | 0.00 | 0.00 | 60 | 1012.9 |
| 20260505012011 | 66 | 168 | 0.0 | 3.0 | 0.00 | 0.00 | 0.00 | 60 | 1012.8 |
| 20260505011520 | 67 | 258 | 0.0 | 2.0 | 0.00 | 0.00 | 0.00 | 60 | 1012.8 |
| 20260505011007 | 67 | 168 | 0.0 | 3.0 | 0.00 | 0.00 | 0.00 | 59 | 1012.7 |
| 20260505010507 | 67 | 256 | 0.0 | 5.0 | 0.00 | 0.00 | 0.00 | 58 | 1012.8 |
| 20260505010024 | 68 | 237 | 0.0 | 5.0 | 0.00 | 0.00 | 0.00 | 58 | 1012.7 |
| 20260505005512 | 68 | 266 | 0.0 | 3.0 | 0.00 | 0.00 | 0.00 | 57 | 1012.6 |
| 20260505005008 | 69 | 255 | 0.0 | 3.0 | 0.00 | 0.00 | 0.00 | 56 | 1012.5 |
| 20260505004524 | 69 | 211 | 0.0 | 6.0 | 0.00 | 0.00 | 0.00 | 55 | 1012.4 |
| 20260505004004 | 70 | 70 | 1.0 | 6.0 | 0.00 | 0.00 | 0.00 | 54 | 1012.3 |
| 20260505003504 | 70 | 208 | 1.0 | 6.0 | 0.00 | 0.00 | 0.00 | 54 | 1012.3 |
| 20260505003015 | 70 | 261 | 1.0 | 4.0 | 0.00 | 0.00 | 0.00 | 53 | 1012.3 |
| 20260505002505 | 70 | 229 | 1.0 | 4.0 | 0.00 | 0.00 | 0.00 | 52 | 1012.3 |
| 20260505002008 | 71 | 206 | 1.0 | 4.0 | 0.00 | 0.00 | 0.00 | 51 | 1012.3 |
| 20260505001518 | 71 | 93 | 1.0 | 5.0 | 0.00 | 0.00 | 0.00 | 51 | 1012.2 |
| 20260505001007 | 71 | 231 | 1.0 | 6.0 | 0.00 | 0.00 | 0.00 | 50 | 1012.2 |
| 20260505000511 | 72 | 304 | 1.0 | 6.0 | 0.00 | 0.00 | 0.00 | 49 | 1012.3 |
| 20260505000023 | 72 | 240 | 1.0 | 6.0 | 0.00 | 0.00 | 0.00 | 48 | 1012.3 |
| 20260504235507 | 72 | 224 | 1.0 | 5.0 | 0.00 | 0.00 | 0.00 | 47 | 1012.2 |
| 20260504235008 | 72 | 204 | 1.0 | 6.0 | 0.00 | 0.00 | 0.00 | 47 | 1012.2 |
| 20260504234524 | 72 | 187 | 3.0 | 6.0 | 0.00 | 0.00 | 0.00 | 46 | 1012.2 |
| 20260504234008 | 73 | 250 | 1.0 | 4.0 | 0.00 | 0.00 | 0.00 | 48 | 1012.1 |
| 20260504233509 | 73 | 197 | 0.0 | 5.0 | 0.00 | 0.00 | 0.00 | 50 | 1012.1 |
| 20260504233025 | 73 | 247 | 2.0 | 5.0 | 0.00 | 0.00 | 0.00 | 47 | 1012.1 |
| 20260504232507 | 73 | 241 | 0.0 | 5.0 | 0.00 | 0.00 | 0.00 | 50 | 1012.1 |
| 20260504232005 | 74 | 215 | 1.0 | 5.0 | 0.00 | 0.00 | 0.00 | 48 | 1012.1 |
| 20260504231516 | 74 | 174 | 1.0 | 5.0 | 0.00 | 0.00 | 0.00 | 49 | 1012.1 |
| 20260504231011 | 74 | 237 | 2.0 | 4.0 | 0.00 | 0.00 | 0.00 | 48 | 1012.0 |
| 20260504230507 | 74 | 239 | 1.0 | 5.0 | 0.00 | 0.00 | 0.00 | 48 | 1012.0 |
| 20260504230018 | 74 | 233 | 2.0 | 6.0 | 0.00 | 0.00 | 0.00 | 48 | 1012.0 |
| 20260504225508 | 74 | 109 | 1.0 | 6.0 | 0.00 | 0.00 | 0.00 | 47 | 1012.0 |
| 20260504225010 | 74 | 233 | 2.0 | 5.0 | 0.00 | 0.00 | 0.00 | 47 | 1012.0 |
| 20260504224529 | 74 | 298 | 2.0 | 5.0 | 0.00 | 0.00 | 0.00 | 47 | 1012.1 |
| 20260504224011 | 74 | 196 | 0.0 | 6.0 | 0.00 | 0.00 | 0.00 | 48 | 1012.1 |
| 20260504223508 | 74 | 168 | 0.0 | 6.0 | 0.00 | 0.00 | 0.00 | 46 | 1012.1 |
| 20260504223026 | 75 | 188 | 2.0 | 6.0 | 0.00 | 0.00 | 0.00 | 44 | 1012.2 |
| 20260504222511 | 75 | 229 | 1.0 | 7.0 | 0.00 | 0.00 | 0.00 | 44 | 1012.1 |
| 20260504222008 | 75 | 271 | 1.0 | 7.0 | 0.00 | 0.00 | 0.00 | 45 | 1012.1 |
| 20260504221513 | 75 | 178 | 1.0 | 7.0 | 0.00 | 0.00 | 0.00 | 45 | 1012.1 |
| 20260504221008 | 75 | 309 | 2.0 | 10.0 | 0.00 | 0.00 | 0.00 | 44 | 1012.0 |
| 20260504220508 | 75 | 212 | 3.0 | 10.0 | 0.00 | 0.00 | 0.00 | 42 | 1012.1 |
| 20260504220018 | 76 | 250 | 2.0 | 10.0 | 0.00 | 0.00 | 0.00 | 43 | 1012.2 |
| 20260504215504 | 76 | 257 | 3.0 | 10.0 | 0.00 | 0.00 | 0.00 | 42 | 1012.2 |
| 20260504215006 | 76 | 351 | 3.0 | 10.0 | 0.00 | 0.00 | 0.00 | 40 | 1012.3 |
| 20260504214503 | 76 | 204 | 3.0 | 9.0 | 0.00 | 0.00 | 0.00 | 43 | 1012.4 |
| 20260504214006 | 77 | 258 | 2.0 | 9.0 | 0.00 | 0.00 | 0.00 | 43 | 1012.4 |
| 20260504213504 | 77 | 233 | 3.0 | 8.0 | 0.00 | 0.00 | 0.00 | 41 | 1012.4 |
| 20260504213019 | 77 | 232 | 1.0 | 12.0 | 0.00 | 0.00 | 0.00 | 45 | 1012.4 |
| 20260504212503 | 77 | 258 | 2.0 | 12.0 | 0.00 | 0.00 | 0.00 | 40 | 1012.4 |
| 20260504212005 | 77 | 222 | 2.0 | 7.0 | 0.00 | 0.00 | 0.00 | 43 | 1012.4 |
| 20260504211513 | 77 | 231 | 4.0 | 8.0 | 0.00 | 0.00 | 0.00 | 43 | 1012.5 |
| 20260504211004 | 77 | 220 | 3.0 | 10.0 | 0.00 | 0.00 | 0.00 | 45 | 1012.5 |
| 20260504210507 | 77 | 249 | 4.0 | 10.0 | 0.00 | 0.00 | 0.00 | 45 | 1012.6 |
| 20260504210018 | 77 | 221 | 3.0 | 8.0 | 0.00 | 0.00 | 0.00 | 44 | 1012.6 |
| 20260504205507 | 76 | 251 | 3.0 | 8.0 | 0.00 | 0.00 | 0.00 | 45 | 1012.7 |
| 20260504205007 | 76 | 242 | 3.0 | 8.0 | 0.00 | 0.00 | 0.00 | 45 | 1012.7 |
| 20260504204518 | 76 | 130 | 3.0 | 7.0 | 0.00 | 0.00 | 0.00 | 45 | 1012.8 |
| 20260504204004 | 77 | 244 | 2.0 | 9.0 | 0.00 | 0.00 | 0.00 | 47 | 1012.9 |
| 20260504203505 | 76 | 269 | 4.0 | 9.0 | 0.00 | 0.00 | 0.00 | 46 | 1012.9 |
| 20260504203006 | 77 | 215 | 2.0 | 9.0 | 0.00 | 0.00 | 0.00 | 46 | 1012.9 |
| 20260504202505 | 77 | 143 | 2.0 | 9.0 | 0.00 | 0.00 | 0.00 | 47 | 1012.9 |
| 20260504202004 | 76 | 222 | 4.0 | 9.0 | 0.00 | 0.00 | 0.00 | 47 | 1012.9 |
| 20260504201509 | 76 | 181 | 3.0 | 7.0 | 0.00 | 0.00 | 0.00 | 49 | 1013.0 |
| 20260504201003 | 76 | 158 | 2.0 | 6.0 | 0.00 | 0.00 | 0.00 | 47 | 1013.1 |
| 20260504200506 | 76 | 169 | 1.0 | 6.0 | 0.00 | 0.00 | 0.00 | 47 | 1013.1 |
| 20260504200019 | 76 | 248 | 2.0 | 5.0 | 0.00 | 0.00 | 0.00 | 51 | 1013.2 |
| 20260504195506 | 75 | 215 | 2.0 | 8.0 | 0.00 | 0.00 | 0.00 | 52 | 1013.2 |
| 20260504195007 | 75 | 279 | 2.0 | 8.0 | 0.00 | 0.00 | 0.00 | 52 | 1013.3 |
| 20260504194523 | 75 | 225 | 2.0 | 8.0 | 0.00 | 0.00 | 0.00 | 47 | 1013.3 |
| 20260504194009 | 75 | 219 | 2.0 | 8.0 | 0.00 | 0.00 | 0.00 | 51 | 1013.4 |
| 20260504193509 | 75 | 320 | 1.0 | 6.0 | 0.00 | 0.00 | 0.00 | 49 | 1013.4 |
| 20260504193020 | 75 | 20 | 2.0 | 9.0 | 0.00 | 0.00 | 0.00 | 50 | 1013.5 |
| 20260504192508 | 75 | 269 | 2.0 | 9.0 | 0.00 | 0.00 | 0.00 | 51 | 1013.6 |
| 20260504192005 | 74 | 247 | 3.0 | 9.0 | 0.00 | 0.00 | 0.00 | 51 | 1013.7 |
| 20260504191505 | 75 | 238 | 3.0 | 7.0 | 0.00 | 0.00 | 0.00 | 48 | 1013.8 |
| 20260504191005 | 75 | 206 | 3.0 | 7.0 | 0.00 | 0.00 | 0.00 | 50 | 1013.8 |
| 20260504190508 | 75 | 106 | 2.0 | 7.0 | 0.00 | 0.00 | 0.00 | 52 | 1013.9 |
| 20260504190019 | 74 | 269 | 2.0 | 9.0 | 0.00 | 0.00 | 0.00 | 53 | 1014.0 |
| 20260504185506 | 74 | 163 | 3.0 | 9.0 | 0.00 | 0.00 | 0.00 | 51 | 1014.0 |
| 20260504185007 | 74 | 204 | 3.0 | 9.0 | 0.00 | 0.00 | 0.00 | 49 | 1014.1 |
| 20260504184532 | 74 | 235 | 1.0 | 7.0 | 0.00 | 0.00 | 0.00 | 52 | 1014.2 |
| 20260504184013 | 74 | 188 | 1.0 | 9.0 | 0.00 | 0.00 | 0.00 | 53 | 1014.3 |
| 20260504183508 | 74 | 239 | 3.0 | 9.0 | 0.00 | 0.00 | 0.00 | 51 | 1014.5 |
| 20260504183023 | 74 | 223 | 2.0 | 9.0 | 0.00 | 0.00 | 0.00 | 49 | 1014.6 |
| 20260504182512 | 74 | 4 | 2.0 | 8.0 | 0.00 | 0.00 | 0.00 | 50 | 1014.7 |
| 20260504182010 | 74 | 194 | 2.0 | 7.0 | 0.00 | 0.00 | 0.00 | 50 | 1014.7 |
| 20260504181523 | 74 | 181 | 2.0 | 8.0 | 0.00 | 0.00 | 0.00 | 49 | 1014.9 |
| 20260504181010 | 74 | 246 | 1.0 | 9.0 | 0.00 | 0.00 | 0.00 | 54 | 1014.9 |
| 20260504180506 | 74 | 251 | 2.0 | 9.0 | 0.00 | 0.00 | 0.00 | 50 | 1015.0 |
| 20260504180010 | 74 | 183 | 1.0 | 8.0 | 0.00 | 0.00 | 0.00 | 53 | 1015.0 |
| 20260504175504 | 74 | 152 | 2.0 | 8.0 | 0.00 | 0.00 | 0.00 | 55 | 1015.0 |
| 20260504175005 | 73 | 2 | 2.0 | 8.0 | 0.00 | 0.00 | 0.00 | 53 | 1015.1 |
| 20260504174513 | 73 | 287 | 3.0 | 7.0 | 0.00 | 0.00 | 0.00 | 49 | 1015.1 |
| 20260504174010 | 73 | 178 | 2.0 | 9.0 | 0.00 | 0.00 | 0.00 | 47 | 1015.2 |
| 20260504173506 | 73 | 213 | 2.0 | 9.0 | 0.00 | 0.00 | 0.00 | 50 | 1015.2 |
| 20260504173020 | 73 | 104 | 3.0 | 7.0 | 0.00 | 0.00 | 0.00 | 49 | 1015.3 |
| 20260504172507 | 72 | 212 | 2.0 | 8.0 | 0.00 | 0.00 | 0.00 | 51 | 1015.3 |
| 20260504172008 | 73 | 268 | 1.0 | 8.0 | 0.00 | 0.00 | 0.00 | 56 | 1015.3 |
| 20260504171522 | 72 | 277 | 2.0 | 8.0 | 0.00 | 0.00 | 0.00 | 50 | 1015.4 |
| 20260504171011 | 72 | 173 | 2.0 | 8.0 | 0.00 | 0.00 | 0.00 | 51 | 1015.5 |
| 20260504170507 | 72 | 329 | 2.0 | 7.0 | 0.00 | 0.00 | 0.00 | 52 | 1015.5 |
| 20260504151005 | 66 | 163 | 2.0 | 9.0 | 0.00 | 0.00 | 0.00 | 53 | 1017.1 |
| 20260504150511 | 66 | 272 | 3.0 | 9.0 | 0.00 | 0.00 | 0.00 | 56 | 1017.1 |
| 20260504141010 | 61 | 108 | 1.0 | 5.0 | 0.00 | 0.00 | 0.00 | 65 | 1017.9 |
| 20260504140509 | 61 | 298 | 2.0 | 5.0 | 0.00 | 0.00 | 0.00 | 64 | 1017.8 |
| 20260504130507 | 54 | 117 | 1.0 | 4.0 | 0.00 | 0.00 | 0.00 | 82 | 1017.9 |